Index of /20260429/WXO-DD/model_rdps/10km/12/048
Name Last modified Size Description
Parent Directory -
20260429T12Z_MSC_RDPS_AbsoluteVorticity_IsbL-0250_RLatLon0.09_PT048H.grib2 2026-04-29 14:59 601K
20260429T12Z_MSC_RDPS_AbsoluteVorticity_IsbL-0500_RLatLon0.09_PT048H.grib2 2026-04-29 14:59 558K
20260429T12Z_MSC_RDPS_AbsoluteVorticity_IsbL-0700_RLatLon0.09_PT048H.grib2 2026-04-29 14:59 616K
20260429T12Z_MSC_RDPS_AbsoluteVorticity_IsbL-0850_RLatLon0.09_PT048H.grib2 2026-04-29 14:59 774K
20260429T12Z_MSC_RDPS_AirTemp_AGL-120m_RLatLon0.09_PT048H.grib2 2026-04-29 14:59 380K
20260429T12Z_MSC_RDPS_AirTemp_AGL-2m_RLatLon0.09_PT048H.grib2 2026-04-29 14:59 631K
20260429T12Z_MSC_RDPS_AirTemp_AGL-40m_RLatLon0.09_PT048H.grib2 2026-04-29 14:59 398K
20260429T12Z_MSC_RDPS_AirTemp_AGL-80m_RLatLon0.09_PT048H.grib2 2026-04-29 14:59 389K
20260429T12Z_MSC_RDPS_AirTemp_IsbL-0001_RLatLon0.09_PT048H.grib2 2026-04-29 14:59 306K
20260429T12Z_MSC_RDPS_AirTemp_IsbL-0005_RLatLon0.09_PT048H.grib2 2026-04-29 14:59 289K
20260429T12Z_MSC_RDPS_AirTemp_IsbL-0010_RLatLon0.09_PT048H.grib2 2026-04-29 14:59 390K
20260429T12Z_MSC_RDPS_AirTemp_IsbL-0020_RLatLon0.09_PT048H.grib2 2026-04-29 14:59 414K
20260429T12Z_MSC_RDPS_AirTemp_IsbL-0030_RLatLon0.09_PT048H.grib2 2026-04-29 14:59 337K
20260429T12Z_MSC_RDPS_AirTemp_IsbL-0050_RLatLon0.09_PT048H.grib2 2026-04-29 14:59 314K
20260429T12Z_MSC_RDPS_AirTemp_IsbL-0100_RLatLon0.09_PT048H.grib2 2026-04-29 14:59 422K
20260429T12Z_MSC_RDPS_AirTemp_IsbL-0150_RLatLon0.09_PT048H.grib2 2026-04-29 14:59 416K
20260429T12Z_MSC_RDPS_AirTemp_IsbL-0175_RLatLon0.09_PT048H.grib2 2026-04-29 14:59 409K
20260429T12Z_MSC_RDPS_AirTemp_IsbL-0200_RLatLon0.09_PT048H.grib2 2026-04-29 14:59 414K
20260429T12Z_MSC_RDPS_AirTemp_IsbL-0225_RLatLon0.09_PT048H.grib2 2026-04-29 14:59 414K
20260429T12Z_MSC_RDPS_AirTemp_IsbL-0250_RLatLon0.09_PT048H.grib2 2026-04-29 14:59 419K
20260429T12Z_MSC_RDPS_AirTemp_IsbL-0275_RLatLon0.09_PT048H.grib2 2026-04-29 14:59 398K
20260429T12Z_MSC_RDPS_AirTemp_IsbL-0300_RLatLon0.09_PT048H.grib2 2026-04-29 14:59 405K
20260429T12Z_MSC_RDPS_AirTemp_IsbL-0350_RLatLon0.09_PT048H.grib2 2026-04-29 14:59 419K
20260429T12Z_MSC_RDPS_AirTemp_IsbL-0400_RLatLon0.09_PT048H.grib2 2026-04-29 14:59 421K
20260429T12Z_MSC_RDPS_AirTemp_IsbL-0450_RLatLon0.09_PT048H.grib2 2026-04-29 14:59 392K
20260429T12Z_MSC_RDPS_AirTemp_IsbL-0500_RLatLon0.09_PT048H.grib2 2026-04-29 14:59 402K
20260429T12Z_MSC_RDPS_AirTemp_IsbL-0550_RLatLon0.09_PT048H.grib2 2026-04-29 14:59 419K
20260429T12Z_MSC_RDPS_AirTemp_IsbL-0600_RLatLon0.09_PT048H.grib2 2026-04-29 14:59 440K
20260429T12Z_MSC_RDPS_AirTemp_IsbL-0650_RLatLon0.09_PT048H.grib2 2026-04-29 14:59 455K
20260429T12Z_MSC_RDPS_AirTemp_IsbL-0700_RLatLon0.09_PT048H.grib2 2026-04-29 14:59 477K
20260429T12Z_MSC_RDPS_AirTemp_IsbL-0750_RLatLon0.09_PT048H.grib2 2026-04-29 14:59 514K
20260429T12Z_MSC_RDPS_AirTemp_IsbL-0800_RLatLon0.09_PT048H.grib2 2026-04-29 14:59 565K
20260429T12Z_MSC_RDPS_AirTemp_IsbL-0850_RLatLon0.09_PT048H.grib2 2026-04-29 14:59 624K
20260429T12Z_MSC_RDPS_AirTemp_IsbL-0875_RLatLon0.09_PT048H.grib2 2026-04-29 14:59 520K
20260429T12Z_MSC_RDPS_AirTemp_IsbL-0900_RLatLon0.09_PT048H.grib2 2026-04-29 14:59 528K
20260429T12Z_MSC_RDPS_AirTemp_IsbL-0925_RLatLon0.09_PT048H.grib2 2026-04-29 14:59 527K
20260429T12Z_MSC_RDPS_AirTemp_IsbL-0950_RLatLon0.09_PT048H.grib2 2026-04-29 14:59 528K
20260429T12Z_MSC_RDPS_AirTemp_IsbL-0970_RLatLon0.09_PT048H.grib2 2026-04-29 14:59 520K
20260429T12Z_MSC_RDPS_AirTemp_IsbL-0985_RLatLon0.09_PT048H.grib2 2026-04-29 14:59 510K
20260429T12Z_MSC_RDPS_AirTemp_IsbL-1000_RLatLon0.09_PT048H.grib2 2026-04-29 14:59 495K
20260429T12Z_MSC_RDPS_AirTemp_IsbL-1015_RLatLon0.09_PT048H.grib2 2026-04-29 14:59 492K
20260429T12Z_MSC_RDPS_Albedo_Sfc_RLatLon0.09_PT048H.grib2 2026-04-29 14:59 153K
20260429T12Z_MSC_RDPS_CAPE_Sfc_RLatLon0.09_PT048H.grib2 2026-04-29 14:59 1.6M
20260429T12Z_MSC_RDPS_CIN_Sfc_RLatLon0.09_PT048H.grib2 2026-04-29 14:59 1.1M
20260429T12Z_MSC_RDPS_CloudWater_EAtm_RLatLon0.09_PT048H.grib2 2026-04-29 14:59 218K
20260429T12Z_MSC_RDPS_ConvectivePrecip-Accum_Sfc_RLatLon0.09_PT048H.grib2 2026-04-29 14:59 1.0M
20260429T12Z_MSC_RDPS_DewPointDepression_AGL-2m_RLatLon0.09_PT048H.grib2 2026-04-29 14:59 395K
20260429T12Z_MSC_RDPS_DewPointDepression_IsbL-0001_RLatLon0.09_PT048H.grib2 2026-04-29 14:59 193
20260429T12Z_MSC_RDPS_DewPointDepression_IsbL-0005_RLatLon0.09_PT048H.grib2 2026-04-29 14:59 193
20260429T12Z_MSC_RDPS_DewPointDepression_IsbL-0010_RLatLon0.09_PT048H.grib2 2026-04-29 14:59 193
20260429T12Z_MSC_RDPS_DewPointDepression_IsbL-0020_RLatLon0.09_PT048H.grib2 2026-04-29 14:59 193
20260429T12Z_MSC_RDPS_DewPointDepression_IsbL-0030_RLatLon0.09_PT048H.grib2 2026-04-29 14:59 193
20260429T12Z_MSC_RDPS_DewPointDepression_IsbL-0050_RLatLon0.09_PT048H.grib2 2026-04-29 14:59 81K
20260429T12Z_MSC_RDPS_DewPointDepression_IsbL-0100_RLatLon0.09_PT048H.grib2 2026-04-29 14:59 128K
20260429T12Z_MSC_RDPS_DewPointDepression_IsbL-0150_RLatLon0.09_PT048H.grib2 2026-04-29 14:59 147K
20260429T12Z_MSC_RDPS_DewPointDepression_IsbL-0175_RLatLon0.09_PT048H.grib2 2026-04-29 14:59 178K
20260429T12Z_MSC_RDPS_DewPointDepression_IsbL-0200_RLatLon0.09_PT048H.grib2 2026-04-29 14:59 214K
20260429T12Z_MSC_RDPS_DewPointDepression_IsbL-0225_RLatLon0.09_PT048H.grib2 2026-04-29 14:59 256K
20260429T12Z_MSC_RDPS_DewPointDepression_IsbL-0250_RLatLon0.09_PT048H.grib2 2026-04-29 14:59 294K
20260429T12Z_MSC_RDPS_DewPointDepression_IsbL-0275_RLatLon0.09_PT048H.grib2 2026-04-29 14:59 301K
20260429T12Z_MSC_RDPS_DewPointDepression_IsbL-0300_RLatLon0.09_PT048H.grib2 2026-04-29 14:59 322K
20260429T12Z_MSC_RDPS_DewPointDepression_IsbL-0350_RLatLon0.09_PT048H.grib2 2026-04-29 14:59 329K
20260429T12Z_MSC_RDPS_DewPointDepression_IsbL-0400_RLatLon0.09_PT048H.grib2 2026-04-29 14:59 339K
20260429T12Z_MSC_RDPS_DewPointDepression_IsbL-0450_RLatLon0.09_PT048H.grib2 2026-04-29 14:59 345K
20260429T12Z_MSC_RDPS_DewPointDepression_IsbL-0500_RLatLon0.09_PT048H.grib2 2026-04-29 14:59 350K
20260429T12Z_MSC_RDPS_DewPointDepression_IsbL-0550_RLatLon0.09_PT048H.grib2 2026-04-29 14:59 360K
20260429T12Z_MSC_RDPS_DewPointDepression_IsbL-0600_RLatLon0.09_PT048H.grib2 2026-04-29 14:59 373K
20260429T12Z_MSC_RDPS_DewPointDepression_IsbL-0650_RLatLon0.09_PT048H.grib2 2026-04-29 14:59 375K
20260429T12Z_MSC_RDPS_DewPointDepression_IsbL-0700_RLatLon0.09_PT048H.grib2 2026-04-29 14:59 383K
20260429T12Z_MSC_RDPS_DewPointDepression_IsbL-0750_RLatLon0.09_PT048H.grib2 2026-04-29 14:59 400K
20260429T12Z_MSC_RDPS_DewPointDepression_IsbL-0800_RLatLon0.09_PT048H.grib2 2026-04-29 14:59 434K
20260429T12Z_MSC_RDPS_DewPointDepression_IsbL-0850_RLatLon0.09_PT048H.grib2 2026-04-29 14:59 466K
20260429T12Z_MSC_RDPS_DewPointDepression_IsbL-0875_RLatLon0.09_PT048H.grib2 2026-04-29 14:59 471K
20260429T12Z_MSC_RDPS_DewPointDepression_IsbL-0900_RLatLon0.09_PT048H.grib2 2026-04-29 14:59 462K
20260429T12Z_MSC_RDPS_DewPointDepression_IsbL-0925_RLatLon0.09_PT048H.grib2 2026-04-29 14:59 448K
20260429T12Z_MSC_RDPS_DewPointDepression_IsbL-0950_RLatLon0.09_PT048H.grib2 2026-04-29 14:59 442K
20260429T12Z_MSC_RDPS_DewPointDepression_IsbL-0970_RLatLon0.09_PT048H.grib2 2026-04-29 14:59 434K
20260429T12Z_MSC_RDPS_DewPointDepression_IsbL-0985_RLatLon0.09_PT048H.grib2 2026-04-29 14:59 428K
20260429T12Z_MSC_RDPS_DewPointDepression_IsbL-1000_RLatLon0.09_PT048H.grib2 2026-04-29 14:59 424K
20260429T12Z_MSC_RDPS_DewPointDepression_IsbL-1015_RLatLon0.09_PT048H.grib2 2026-04-29 14:59 415K
20260429T12Z_MSC_RDPS_DewPoint_AGL-2m_RLatLon0.09_PT048H.grib2 2026-04-29 14:59 397K
20260429T12Z_MSC_RDPS_DownwardLongwaveRadiationFlux-Accum_Sfc_RLatLon0.09_PT048H.grib2 2026-04-29 14:59 366K
20260429T12Z_MSC_RDPS_DownwardShortwaveRadiationFlux-Accum_NTAtm_RLatLon0.09_PT048H.grib2 2026-04-29 14:59 119K
20260429T12Z_MSC_RDPS_DownwardShortwaveRadiationFlux-Accum_Sfc_RLatLon0.09_PT048H.grib2 2026-04-29 14:59 552K
20260429T12Z_MSC_RDPS_FreezingRain-Accum12h_Sfc_RLatLon0.09_PT048H.grib2 2026-04-29 14:59 86K
20260429T12Z_MSC_RDPS_FreezingRain-Accum1h_Sfc_RLatLon0.09_PT048H.grib2 2026-04-29 14:59 36K
20260429T12Z_MSC_RDPS_FreezingRain-Accum24h_Sfc_RLatLon0.09_PT048H.grib2 2026-04-29 14:59 120K
20260429T12Z_MSC_RDPS_FreezingRain-Accum3h_Sfc_RLatLon0.09_PT048H.grib2 2026-04-29 14:59 51K
20260429T12Z_MSC_RDPS_FreezingRain-Accum6h_Sfc_RLatLon0.09_PT048H.grib2 2026-04-29 14:59 68K
20260429T12Z_MSC_RDPS_FreezingRain-Accum_Sfc_RLatLon0.09_PT048H.grib2 2026-04-29 14:59 175K
20260429T12Z_MSC_RDPS_GeopotentialHeight_IsbL-0001_RLatLon0.09_PT048H.grib2 2026-04-29 14:59 312K
20260429T12Z_MSC_RDPS_GeopotentialHeight_IsbL-0005_RLatLon0.09_PT048H.grib2 2026-04-29 14:59 301K
20260429T12Z_MSC_RDPS_GeopotentialHeight_IsbL-0010_RLatLon0.09_PT048H.grib2 2026-04-29 14:59 304K
20260429T12Z_MSC_RDPS_GeopotentialHeight_IsbL-0020_RLatLon0.09_PT048H.grib2 2026-04-29 14:59 304K
20260429T12Z_MSC_RDPS_GeopotentialHeight_IsbL-0030_RLatLon0.09_PT048H.grib2 2026-04-29 14:59 304K
20260429T12Z_MSC_RDPS_GeopotentialHeight_IsbL-0050_RLatLon0.09_PT048H.grib2 2026-04-29 14:59 307K
20260429T12Z_MSC_RDPS_GeopotentialHeight_IsbL-0100_RLatLon0.09_PT048H.grib2 2026-04-29 14:59 283K
20260429T12Z_MSC_RDPS_GeopotentialHeight_IsbL-0150_RLatLon0.09_PT048H.grib2 2026-04-29 14:59 226K
20260429T12Z_MSC_RDPS_GeopotentialHeight_IsbL-0175_RLatLon0.09_PT048H.grib2 2026-04-29 14:59 229K
20260429T12Z_MSC_RDPS_GeopotentialHeight_IsbL-0200_RLatLon0.09_PT048H.grib2 2026-04-29 14:59 263K
20260429T12Z_MSC_RDPS_GeopotentialHeight_IsbL-0225_RLatLon0.09_PT048H.grib2 2026-04-29 14:59 265K
20260429T12Z_MSC_RDPS_GeopotentialHeight_IsbL-0250_RLatLon0.09_PT048H.grib2 2026-04-29 14:59 266K
20260429T12Z_MSC_RDPS_GeopotentialHeight_IsbL-0275_RLatLon0.09_PT048H.grib2 2026-04-29 14:59 265K
20260429T12Z_MSC_RDPS_GeopotentialHeight_IsbL-0300_RLatLon0.09_PT048H.grib2 2026-04-29 14:59 233K
20260429T12Z_MSC_RDPS_GeopotentialHeight_IsbL-0350_RLatLon0.09_PT048H.grib2 2026-04-29 14:59 230K
20260429T12Z_MSC_RDPS_GeopotentialHeight_IsbL-0400_RLatLon0.09_PT048H.grib2 2026-04-29 14:59 227K
20260429T12Z_MSC_RDPS_GeopotentialHeight_IsbL-0450_RLatLon0.09_PT048H.grib2 2026-04-29 14:59 294K
20260429T12Z_MSC_RDPS_GeopotentialHeight_IsbL-0500_RLatLon0.09_PT048H.grib2 2026-04-29 14:59 290K
20260429T12Z_MSC_RDPS_GeopotentialHeight_IsbL-0550_RLatLon0.09_PT048H.grib2 2026-04-29 14:59 286K
20260429T12Z_MSC_RDPS_GeopotentialHeight_IsbL-0600_RLatLon0.09_PT048H.grib2 2026-04-29 14:59 282K
20260429T12Z_MSC_RDPS_GeopotentialHeight_IsbL-0650_RLatLon0.09_PT048H.grib2 2026-04-29 14:59 253K
20260429T12Z_MSC_RDPS_GeopotentialHeight_IsbL-0700_RLatLon0.09_PT048H.grib2 2026-04-29 14:59 333K
20260429T12Z_MSC_RDPS_GeopotentialHeight_IsbL-0750_RLatLon0.09_PT048H.grib2 2026-04-29 14:59 335K
20260429T12Z_MSC_RDPS_GeopotentialHeight_IsbL-0800_RLatLon0.09_PT048H.grib2 2026-04-29 14:59 343K
20260429T12Z_MSC_RDPS_GeopotentialHeight_IsbL-0850_RLatLon0.09_PT048H.grib2 2026-04-29 14:59 354K
20260429T12Z_MSC_RDPS_GeopotentialHeight_IsbL-0875_RLatLon0.09_PT048H.grib2 2026-04-29 14:59 355K
20260429T12Z_MSC_RDPS_GeopotentialHeight_IsbL-0900_RLatLon0.09_PT048H.grib2 2026-04-29 14:59 360K
20260429T12Z_MSC_RDPS_GeopotentialHeight_IsbL-0925_RLatLon0.09_PT048H.grib2 2026-04-29 14:59 364K
20260429T12Z_MSC_RDPS_GeopotentialHeight_IsbL-0950_RLatLon0.09_PT048H.grib2 2026-04-29 14:59 367K
20260429T12Z_MSC_RDPS_GeopotentialHeight_IsbL-0970_RLatLon0.09_PT048H.grib2 2026-04-29 14:59 372K
20260429T12Z_MSC_RDPS_GeopotentialHeight_IsbL-0985_RLatLon0.09_PT048H.grib2 2026-04-29 14:59 380K
20260429T12Z_MSC_RDPS_GeopotentialHeight_IsbL-1000_RLatLon0.09_PT048H.grib2 2026-04-29 14:59 392K
20260429T12Z_MSC_RDPS_GeopotentialHeight_IsbL-1015_RLatLon0.09_PT048H.grib2 2026-04-29 14:59 407K
20260429T12Z_MSC_RDPS_Humidex_Sfc_RLatLon0.09_PT048H.grib2 2026-04-29 14:59 2.4M
20260429T12Z_MSC_RDPS_IcePellets-Accum12h_Sfc_RLatLon0.09_PT048H.grib2 2026-04-29 14:59 11K
20260429T12Z_MSC_RDPS_IcePellets-Accum1h_Sfc_RLatLon0.09_PT048H.grib2 2026-04-29 14:59 8.1K
20260429T12Z_MSC_RDPS_IcePellets-Accum24h_Sfc_RLatLon0.09_PT048H.grib2 2026-04-29 14:59 13K
20260429T12Z_MSC_RDPS_IcePellets-Accum3h_Sfc_RLatLon0.09_PT048H.grib2 2026-04-29 14:59 9.3K
20260429T12Z_MSC_RDPS_IcePellets-Accum6h_Sfc_RLatLon0.09_PT048H.grib2 2026-04-29 14:59 10K
20260429T12Z_MSC_RDPS_IcePellets-Accum_Sfc_RLatLon0.09_PT048H.grib2 2026-04-29 14:59 19K
20260429T12Z_MSC_RDPS_KIndex_Sfc_RLatLon0.09_PT048H.grib2 2026-04-29 14:59 2.5M
20260429T12Z_MSC_RDPS_LatentHeatNetFlux_Sfc_RLatLon0.09_PT048H.grib2 2026-04-29 14:59 421K
20260429T12Z_MSC_RDPS_LiftedIndex-MU-VT_IsbL-0500_RLatLon0.09_PT048H.grib2 2026-04-29 14:59 2.4M
20260429T12Z_MSC_RDPS_NetLongwaveRadiationFlux-Accum_Sfc_RLatLon0.09_PT048H.grib2 2026-04-29 14:59 537K
20260429T12Z_MSC_RDPS_NetShortwaveRadiationFlux-Accum_Sfc_RLatLon0.09_PT048H.grib2 2026-04-29 14:59 554K
20260429T12Z_MSC_RDPS_PlanetaryBoundaryLayerHeight_Sfc_RLatLon0.09_PT048H.grib2 2026-04-29 14:59 1.1M
20260429T12Z_MSC_RDPS_Precip-Accum12h_Sfc_RLatLon0.09_PT048H.grib2 2026-04-29 14:59 1.5M
20260429T12Z_MSC_RDPS_Precip-Accum1h_Sfc_RLatLon0.09_PT048H.grib2 2026-04-29 14:59 1.2M
20260429T12Z_MSC_RDPS_Precip-Accum24h_Sfc_RLatLon0.09_PT048H.grib2 2026-04-29 14:59 1.7M
20260429T12Z_MSC_RDPS_Precip-Accum3h_Sfc_RLatLon0.09_PT048H.grib2 2026-04-29 14:59 1.3M
20260429T12Z_MSC_RDPS_Precip-Accum6h_Sfc_RLatLon0.09_PT048H.grib2 2026-04-29 14:59 1.4M
20260429T12Z_MSC_RDPS_Precip-Accum_Sfc_RLatLon0.09_PT048H.grib2 2026-04-29 14:59 2.0M
20260429T12Z_MSC_RDPS_PrecipRate_Sfc_RLatLon0.09_PT048H.grib2 2026-04-29 14:59 171K
20260429T12Z_MSC_RDPS_PrecipType-Instant_Sfc_RLatLon0.09_PT048H.grib2 2026-04-29 14:59 580K
20260429T12Z_MSC_RDPS_Pressure-Trend3h_Sfc_RLatLon0.09_PT048H.grib2 2026-04-29 14:59 1.2M
20260429T12Z_MSC_RDPS_Pressure_MSL_RLatLon0.09_PT048H.grib2 2026-04-29 14:59 324K
20260429T12Z_MSC_RDPS_Pressure_PVU-1.5_RLatLon0.09_PT048H.grib2 2026-04-29 14:59 2.3M
20260429T12Z_MSC_RDPS_Pressure_PVU-1_RLatLon0.09_PT048H.grib2 2026-04-29 14:59 2.4M
20260429T12Z_MSC_RDPS_Pressure_PVU-2_RLatLon0.09_PT048H.grib2 2026-04-29 14:59 2.4M
20260429T12Z_MSC_RDPS_Pressure_Sfc_RLatLon0.09_PT048H.grib2 2026-04-29 14:59 500K
20260429T12Z_MSC_RDPS_RadiativeTemp_Sfc_RLatLon0.09_PT048H.grib2 2026-04-29 14:59 309K
20260429T12Z_MSC_RDPS_Rain-Accum12h_Sfc_RLatLon0.09_PT048H.grib2 2026-04-29 14:59 1.0M
20260429T12Z_MSC_RDPS_Rain-Accum1h_Sfc_RLatLon0.09_PT048H.grib2 2026-04-29 14:59 601K
20260429T12Z_MSC_RDPS_Rain-Accum24h_Sfc_RLatLon0.09_PT048H.grib2 2026-04-29 14:59 1.2M
20260429T12Z_MSC_RDPS_Rain-Accum3h_Sfc_RLatLon0.09_PT048H.grib2 2026-04-29 14:59 605K
20260429T12Z_MSC_RDPS_Rain-Accum6h_Sfc_RLatLon0.09_PT048H.grib2 2026-04-29 14:59 928K
20260429T12Z_MSC_RDPS_Rain-Accum_Sfc_RLatLon0.09_PT048H.grib2 2026-04-29 14:59 1.6M
20260429T12Z_MSC_RDPS_RelativeHumidity_AGL-2m_RLatLon0.09_PT048H.grib2 2026-04-29 14:59 1.0M
20260429T12Z_MSC_RDPS_RelativeHumidity_IsbL-0010_RLatLon0.09_PT048H.grib2 2026-04-29 14:59 639K
20260429T12Z_MSC_RDPS_RelativeHumidity_IsbL-0020_RLatLon0.09_PT048H.grib2 2026-04-29 14:59 683K
20260429T12Z_MSC_RDPS_RelativeHumidity_IsbL-0030_RLatLon0.09_PT048H.grib2 2026-04-29 14:59 607K
20260429T12Z_MSC_RDPS_RelativeHumidity_IsbL-0050_RLatLon0.09_PT048H.grib2 2026-04-29 14:59 316K
20260429T12Z_MSC_RDPS_RelativeHumidity_IsbL-0100_RLatLon0.09_PT048H.grib2 2026-04-29 14:59 279K
20260429T12Z_MSC_RDPS_RelativeHumidity_IsbL-0150_RLatLon0.09_PT048H.grib2 2026-04-29 14:59 395K
20260429T12Z_MSC_RDPS_RelativeHumidity_IsbL-0175_RLatLon0.09_PT048H.grib2 2026-04-29 14:59 462K
20260429T12Z_MSC_RDPS_RelativeHumidity_IsbL-0200_RLatLon0.09_PT048H.grib2 2026-04-29 14:59 547K
20260429T12Z_MSC_RDPS_RelativeHumidity_IsbL-0225_RLatLon0.09_PT048H.grib2 2026-04-29 14:59 619K
20260429T12Z_MSC_RDPS_RelativeHumidity_IsbL-0250_RLatLon0.09_PT048H.grib2 2026-04-29 14:59 684K
20260429T12Z_MSC_RDPS_RelativeHumidity_IsbL-0275_RLatLon0.09_PT048H.grib2 2026-04-29 14:59 706K
20260429T12Z_MSC_RDPS_RelativeHumidity_IsbL-0300_RLatLon0.09_PT048H.grib2 2026-04-29 14:59 752K
20260429T12Z_MSC_RDPS_RelativeHumidity_IsbL-0350_RLatLon0.09_PT048H.grib2 2026-04-29 14:59 775K
20260429T12Z_MSC_RDPS_RelativeHumidity_IsbL-0400_RLatLon0.09_PT048H.grib2 2026-04-29 14:59 787K
20260429T12Z_MSC_RDPS_RelativeHumidity_IsbL-0450_RLatLon0.09_PT048H.grib2 2026-04-29 14:59 792K
20260429T12Z_MSC_RDPS_RelativeHumidity_IsbL-0500_RLatLon0.09_PT048H.grib2 2026-04-29 14:59 796K
20260429T12Z_MSC_RDPS_RelativeHumidity_IsbL-0550_RLatLon0.09_PT048H.grib2 2026-04-29 14:59 816K
20260429T12Z_MSC_RDPS_RelativeHumidity_IsbL-0600_RLatLon0.09_PT048H.grib2 2026-04-29 14:59 839K
20260429T12Z_MSC_RDPS_RelativeHumidity_IsbL-0650_RLatLon0.09_PT048H.grib2 2026-04-29 14:59 852K
20260429T12Z_MSC_RDPS_RelativeHumidity_IsbL-0700_RLatLon0.09_PT048H.grib2 2026-04-29 14:59 873K
20260429T12Z_MSC_RDPS_RelativeHumidity_IsbL-0750_RLatLon0.09_PT048H.grib2 2026-04-29 14:59 916K
20260429T12Z_MSC_RDPS_RelativeHumidity_IsbL-0800_RLatLon0.09_PT048H.grib2 2026-04-29 14:59 1.0M
20260429T12Z_MSC_RDPS_RelativeHumidity_IsbL-0850_RLatLon0.09_PT048H.grib2 2026-04-29 14:59 1.0M
20260429T12Z_MSC_RDPS_RelativeHumidity_IsbL-0875_RLatLon0.09_PT048H.grib2 2026-04-29 14:59 1.1M
20260429T12Z_MSC_RDPS_RelativeHumidity_IsbL-0900_RLatLon0.09_PT048H.grib2 2026-04-29 14:59 1.1M
20260429T12Z_MSC_RDPS_RelativeHumidity_IsbL-0925_RLatLon0.09_PT048H.grib2 2026-04-29 14:59 1.1M
20260429T12Z_MSC_RDPS_RelativeHumidity_IsbL-0950_RLatLon0.09_PT048H.grib2 2026-04-29 14:59 1.1M
20260429T12Z_MSC_RDPS_RelativeHumidity_IsbL-0970_RLatLon0.09_PT048H.grib2 2026-04-29 14:59 1.1M
20260429T12Z_MSC_RDPS_RelativeHumidity_IsbL-0985_RLatLon0.09_PT048H.grib2 2026-04-29 14:59 1.0M
20260429T12Z_MSC_RDPS_RelativeHumidity_IsbL-1000_RLatLon0.09_PT048H.grib2 2026-04-29 14:59 1.0M
20260429T12Z_MSC_RDPS_RelativeHumidity_IsbL-1015_RLatLon0.09_PT048H.grib2 2026-04-29 14:59 1.0M
20260429T12Z_MSC_RDPS_Runoff-Accum_Sfc_RLatLon0.09_PT048H.grib2 2026-04-29 14:59 51K
20260429T12Z_MSC_RDPS_SWEATIndex_Sfc_RLatLon0.09_PT048H.grib2 2026-04-29 14:59 2.4M
20260429T12Z_MSC_RDPS_SeeingIndex_EAtm_RLatLon0.09_PT048H.grib2 2026-04-29 14:59 1.0M
20260429T12Z_MSC_RDPS_SensibleHeatNetFlux_Sfc_RLatLon0.09_PT048H.grib2 2026-04-29 14:59 305K
20260429T12Z_MSC_RDPS_ShowalterIndex_IsbL-0500_RLatLon0.09_PT048H.grib2 2026-04-29 14:59 2.6M
20260429T12Z_MSC_RDPS_SkyTransparencyIndex_EAtm_RLatLon0.09_PT048H.grib2 2026-04-29 14:59 712K
20260429T12Z_MSC_RDPS_Snow-Accum12h_Sfc_RLatLon0.09_PT048H.grib2 2026-04-29 14:59 568K
20260429T12Z_MSC_RDPS_Snow-Accum1h_Sfc_RLatLon0.09_PT048H.grib2 2026-04-29 14:59 464K
20260429T12Z_MSC_RDPS_Snow-Accum24h_Sfc_RLatLon0.09_PT048H.grib2 2026-04-29 14:59 632K
20260429T12Z_MSC_RDPS_Snow-Accum3h_Sfc_RLatLon0.09_PT048H.grib2 2026-04-29 14:59 462K
20260429T12Z_MSC_RDPS_Snow-Accum6h_Sfc_RLatLon0.09_PT048H.grib2 2026-04-29 14:59 553K
20260429T12Z_MSC_RDPS_Snow-Accum_Sfc_RLatLon0.09_PT048H.grib2 2026-04-29 14:59 777K
20260429T12Z_MSC_RDPS_SnowDensity_Sfc_RLatLon0.09_PT048H.grib2 2026-04-29 14:59 178K
20260429T12Z_MSC_RDPS_SnowDepth_Sfc_RLatLon0.09_PT048H.grib2 2026-04-29 14:59 676K
20260429T12Z_MSC_RDPS_SoilTemp_DBS-0to10cm_RLatLon0.09_PT048H.grib2 2026-04-29 14:59 235K
20260429T12Z_MSC_RDPS_SoilTemp_Sfc_RLatLon0.09_PT048H.grib2 2026-04-29 14:59 271K
20260429T12Z_MSC_RDPS_SoilVolumetricIceContent_Sfc_RLatLon0.09_PT048H.grib2 2026-04-29 14:59 163K
20260429T12Z_MSC_RDPS_SoilVolumetricWaterContent_DBS-0to10cm_RLatLon0.09_PT048H.grib2 2026-04-29 14:59 269K
20260429T12Z_MSC_RDPS_SoilVolumetricWaterContent_DBS-0to1cm_RLatLon0.09_PT048H.grib2 2026-04-29 14:59 339K
20260429T12Z_MSC_RDPS_SpecificHumidity_AGL-120m_RLatLon0.09_PT048H.grib2 2026-04-29 14:59 490K
20260429T12Z_MSC_RDPS_SpecificHumidity_AGL-2m_RLatLon0.09_PT048H.grib2 2026-04-29 14:59 657K
20260429T12Z_MSC_RDPS_SpecificHumidity_AGL-40m_RLatLon0.09_PT048H.grib2 2026-04-29 14:59 495K
20260429T12Z_MSC_RDPS_SpecificHumidity_AGL-80m_RLatLon0.09_PT048H.grib2 2026-04-29 14:59 491K
20260429T12Z_MSC_RDPS_SpecificHumidity_IsbL-0001_RLatLon0.09_PT048H.grib2 2026-04-29 14:59 353K
20260429T12Z_MSC_RDPS_SpecificHumidity_IsbL-0005_RLatLon0.09_PT048H.grib2 2026-04-29 14:59 363K
20260429T12Z_MSC_RDPS_SpecificHumidity_IsbL-0010_RLatLon0.09_PT048H.grib2 2026-04-29 14:59 396K
20260429T12Z_MSC_RDPS_SpecificHumidity_IsbL-0020_RLatLon0.09_PT048H.grib2 2026-04-29 14:59 386K
20260429T12Z_MSC_RDPS_SpecificHumidity_IsbL-0030_RLatLon0.09_PT048H.grib2 2026-04-29 14:59 368K
20260429T12Z_MSC_RDPS_SpecificHumidity_IsbL-0050_RLatLon0.09_PT048H.grib2 2026-04-29 14:59 481K
20260429T12Z_MSC_RDPS_SpecificHumidity_IsbL-0100_RLatLon0.09_PT048H.grib2 2026-04-29 14:59 536K
20260429T12Z_MSC_RDPS_SpecificHumidity_IsbL-0150_RLatLon0.09_PT048H.grib2 2026-04-29 14:59 466K
20260429T12Z_MSC_RDPS_SpecificHumidity_IsbL-0175_RLatLon0.09_PT048H.grib2 2026-04-29 14:59 520K
20260429T12Z_MSC_RDPS_SpecificHumidity_IsbL-0200_RLatLon0.09_PT048H.grib2 2026-04-29 14:59 439K
20260429T12Z_MSC_RDPS_SpecificHumidity_IsbL-0225_RLatLon0.09_PT048H.grib2 2026-04-29 14:59 444K
20260429T12Z_MSC_RDPS_SpecificHumidity_IsbL-0250_RLatLon0.09_PT048H.grib2 2026-04-29 14:59 503K
20260429T12Z_MSC_RDPS_SpecificHumidity_IsbL-0275_RLatLon0.09_PT048H.grib2 2026-04-29 14:59 462K
20260429T12Z_MSC_RDPS_SpecificHumidity_IsbL-0300_RLatLon0.09_PT048H.grib2 2026-04-29 14:59 439K
20260429T12Z_MSC_RDPS_SpecificHumidity_IsbL-0350_RLatLon0.09_PT048H.grib2 2026-04-29 14:59 532K
20260429T12Z_MSC_RDPS_SpecificHumidity_IsbL-0400_RLatLon0.09_PT048H.grib2 2026-04-29 14:59 513K
20260429T12Z_MSC_RDPS_SpecificHumidity_IsbL-0450_RLatLon0.09_PT048H.grib2 2026-04-29 14:59 565K
20260429T12Z_MSC_RDPS_SpecificHumidity_IsbL-0500_RLatLon0.09_PT048H.grib2 2026-04-29 14:59 501K
20260429T12Z_MSC_RDPS_SpecificHumidity_IsbL-0550_RLatLon0.09_PT048H.grib2 2026-04-29 14:59 557K
20260429T12Z_MSC_RDPS_SpecificHumidity_IsbL-0600_RLatLon0.09_PT048H.grib2 2026-04-29 14:59 628K
20260429T12Z_MSC_RDPS_SpecificHumidity_IsbL-0650_RLatLon0.09_PT048H.grib2 2026-04-29 14:59 544K
20260429T12Z_MSC_RDPS_SpecificHumidity_IsbL-0700_RLatLon0.09_PT048H.grib2 2026-04-29 14:59 584K
20260429T12Z_MSC_RDPS_SpecificHumidity_IsbL-0750_RLatLon0.09_PT048H.grib2 2026-04-29 14:59 636K
20260429T12Z_MSC_RDPS_SpecificHumidity_IsbL-0800_RLatLon0.09_PT048H.grib2 2026-04-29 14:59 707K
20260429T12Z_MSC_RDPS_SpecificHumidity_IsbL-0850_RLatLon0.09_PT048H.grib2 2026-04-29 14:59 793K
20260429T12Z_MSC_RDPS_SpecificHumidity_IsbL-0875_RLatLon0.09_PT048H.grib2 2026-04-29 14:59 823K
20260429T12Z_MSC_RDPS_SpecificHumidity_IsbL-0900_RLatLon0.09_PT048H.grib2 2026-04-29 14:59 837K
20260429T12Z_MSC_RDPS_SpecificHumidity_IsbL-0925_RLatLon0.09_PT048H.grib2 2026-04-29 14:59 840K
20260429T12Z_MSC_RDPS_SpecificHumidity_IsbL-0950_RLatLon0.09_PT048H.grib2 2026-04-29 14:59 842K
20260429T12Z_MSC_RDPS_SpecificHumidity_IsbL-0970_RLatLon0.09_PT048H.grib2 2026-04-29 14:59 833K
20260429T12Z_MSC_RDPS_SpecificHumidity_IsbL-0985_RLatLon0.09_PT048H.grib2 2026-04-29 14:59 682K
20260429T12Z_MSC_RDPS_SpecificHumidity_IsbL-1000_RLatLon0.09_PT048H.grib2 2026-04-29 14:59 675K
20260429T12Z_MSC_RDPS_SpecificHumidity_IsbL-1015_RLatLon0.09_PT048H.grib2 2026-04-29 14:59 664K
20260429T12Z_MSC_RDPS_SpecificHumidity_Sfc_RLatLon0.09_PT048H.grib2 2026-04-29 14:59 297K
20260429T12Z_MSC_RDPS_StormRelativeHelicity_EtaL-10000_RLatLon0.09_PT048H.grib2 2026-04-29 14:59 1.1M
20260429T12Z_MSC_RDPS_StormSeverityIndex_EtaL-10000_RLatLon0.09_PT048H.grib2 2026-04-29 14:59 1.2M
20260429T12Z_MSC_RDPS_Thickness_IsbL-0850to0700_RLatLon0.09_PT048H.grib2 2026-04-29 14:59 176K
20260429T12Z_MSC_RDPS_Thickness_IsbL-1000to0500_RLatLon0.09_PT048H.grib2 2026-04-29 14:59 196K
20260429T12Z_MSC_RDPS_Thickness_IsbL-1000to0850_RLatLon0.09_PT048H.grib2 2026-04-29 14:59 260K
20260429T12Z_MSC_RDPS_TotalCloudCover_Sfc_RLatLon0.09_PT048H.grib2 2026-04-29 14:59 658K
20260429T12Z_MSC_RDPS_TotalTotalsIndex_Sfc_RLatLon0.09_PT048H.grib2 2026-04-29 14:59 2.4M
20260429T12Z_MSC_RDPS_UVIndex-ClearSky_Sfc_RLatLon0.09_PT048H.grib2 2026-04-29 14:59 144K
20260429T12Z_MSC_RDPS_UVIndex_Sfc_RLatLon0.09_PT048H.grib2 2026-04-29 14:59 333K
20260429T12Z_MSC_RDPS_UpwardLongwaveRadiationFlux_NTAtm_RLatLon0.09_PT048H.grib2 2026-04-29 14:59 479K
20260429T12Z_MSC_RDPS_UpwardShortwaveRadiationFlux_NTAtm_RLatLon0.09_PT048H.grib2 2026-04-29 14:59 301K
20260429T12Z_MSC_RDPS_VerticalVelocity_IsbL-0250_RLatLon0.09_PT048H.grib2 2026-04-29 14:59 546K
20260429T12Z_MSC_RDPS_VerticalVelocity_IsbL-0500_RLatLon0.09_PT048H.grib2 2026-04-29 14:59 539K
20260429T12Z_MSC_RDPS_VerticalVelocity_IsbL-0700_RLatLon0.09_PT048H.grib2 2026-04-29 14:59 613K
20260429T12Z_MSC_RDPS_VerticalVelocity_IsbL-0850_RLatLon0.09_PT048H.grib2 2026-04-29 14:59 701K
20260429T12Z_MSC_RDPS_VerticalWindShear_EtaL-6500_RLatLon0.09_PT048H.grib2 2026-04-29 14:59 1.2M
20260429T12Z_MSC_RDPS_WindChill_Sfc_RLatLon0.09_PT048H.grib2 2026-04-29 14:59 1.2M
20260429T12Z_MSC_RDPS_WindDir_AGL-10m_RLatLon0.09_PT048H.grib2 2026-04-29 14:59 1.0M
20260429T12Z_MSC_RDPS_WindDir_AGL-120m_RLatLon0.09_PT048H.grib2 2026-04-29 14:59 607K
20260429T12Z_MSC_RDPS_WindDir_AGL-40m_RLatLon0.09_PT048H.grib2 2026-04-29 14:59 638K
20260429T12Z_MSC_RDPS_WindDir_AGL-80m_RLatLon0.09_PT048H.grib2 2026-04-29 14:59 618K
20260429T12Z_MSC_RDPS_WindDir_IsbL-0001_RLatLon0.09_PT048H.grib2 2026-04-29 14:59 304K
20260429T12Z_MSC_RDPS_WindDir_IsbL-0005_RLatLon0.09_PT048H.grib2 2026-04-29 14:59 375K
20260429T12Z_MSC_RDPS_WindDir_IsbL-0010_RLatLon0.09_PT048H.grib2 2026-04-29 14:59 378K
20260429T12Z_MSC_RDPS_WindDir_IsbL-0020_RLatLon0.09_PT048H.grib2 2026-04-29 14:59 422K
20260429T12Z_MSC_RDPS_WindDir_IsbL-0030_RLatLon0.09_PT048H.grib2 2026-04-29 14:59 416K
20260429T12Z_MSC_RDPS_WindDir_IsbL-0050_RLatLon0.09_PT048H.grib2 2026-04-29 14:59 429K
20260429T12Z_MSC_RDPS_WindDir_IsbL-0100_RLatLon0.09_PT048H.grib2 2026-04-29 14:59 419K
20260429T12Z_MSC_RDPS_WindDir_IsbL-0150_RLatLon0.09_PT048H.grib2 2026-04-29 14:59 419K
20260429T12Z_MSC_RDPS_WindDir_IsbL-0175_RLatLon0.09_PT048H.grib2 2026-04-29 14:59 441K
20260429T12Z_MSC_RDPS_WindDir_IsbL-0200_RLatLon0.09_PT048H.grib2 2026-04-29 14:59 451K
20260429T12Z_MSC_RDPS_WindDir_IsbL-0225_RLatLon0.09_PT048H.grib2 2026-04-29 14:59 455K
20260429T12Z_MSC_RDPS_WindDir_IsbL-0250_RLatLon0.09_PT048H.grib2 2026-04-29 14:59 454K
20260429T12Z_MSC_RDPS_WindDir_IsbL-0275_RLatLon0.09_PT048H.grib2 2026-04-29 14:59 471K
20260429T12Z_MSC_RDPS_WindDir_IsbL-0300_RLatLon0.09_PT048H.grib2 2026-04-29 14:59 469K
20260429T12Z_MSC_RDPS_WindDir_IsbL-0350_RLatLon0.09_PT048H.grib2 2026-04-29 14:59 488K
20260429T12Z_MSC_RDPS_WindDir_IsbL-0400_RLatLon0.09_PT048H.grib2 2026-04-29 14:59 502K
20260429T12Z_MSC_RDPS_WindDir_IsbL-0450_RLatLon0.09_PT048H.grib2 2026-04-29 14:59 514K
20260429T12Z_MSC_RDPS_WindDir_IsbL-0500_RLatLon0.09_PT048H.grib2 2026-04-29 14:59 533K
20260429T12Z_MSC_RDPS_WindDir_IsbL-0550_RLatLon0.09_PT048H.grib2 2026-04-29 14:59 551K
20260429T12Z_MSC_RDPS_WindDir_IsbL-0600_RLatLon0.09_PT048H.grib2 2026-04-29 14:59 577K
20260429T12Z_MSC_RDPS_WindDir_IsbL-0650_RLatLon0.09_PT048H.grib2 2026-04-29 14:59 619K
20260429T12Z_MSC_RDPS_WindDir_IsbL-0700_RLatLon0.09_PT048H.grib2 2026-04-29 14:59 665K
20260429T12Z_MSC_RDPS_WindDir_IsbL-0750_RLatLon0.09_PT048H.grib2 2026-04-29 14:59 706K
20260429T12Z_MSC_RDPS_WindDir_IsbL-0800_RLatLon0.09_PT048H.grib2 2026-04-29 14:59 769K
20260429T12Z_MSC_RDPS_WindDir_IsbL-0850_RLatLon0.09_PT048H.grib2 2026-04-29 14:59 847K
20260429T12Z_MSC_RDPS_WindDir_IsbL-0875_RLatLon0.09_PT048H.grib2 2026-04-29 14:59 878K
20260429T12Z_MSC_RDPS_WindDir_IsbL-0900_RLatLon0.09_PT048H.grib2 2026-04-29 14:59 898K
20260429T12Z_MSC_RDPS_WindDir_IsbL-0925_RLatLon0.09_PT048H.grib2 2026-04-29 14:59 910K
20260429T12Z_MSC_RDPS_WindDir_IsbL-0950_RLatLon0.09_PT048H.grib2 2026-04-29 14:59 914K
20260429T12Z_MSC_RDPS_WindDir_IsbL-0970_RLatLon0.09_PT048H.grib2 2026-04-29 14:59 919K
20260429T12Z_MSC_RDPS_WindDir_IsbL-0985_RLatLon0.09_PT048H.grib2 2026-04-29 14:59 929K
20260429T12Z_MSC_RDPS_WindDir_IsbL-1000_RLatLon0.09_PT048H.grib2 2026-04-29 14:59 946K
20260429T12Z_MSC_RDPS_WindDir_IsbL-1015_RLatLon0.09_PT048H.grib2 2026-04-29 14:59 962K
20260429T12Z_MSC_RDPS_WindGust-Max_AGL-10m_RLatLon0.09_PT048H.grib2 2026-04-29 14:59 1.0M
20260429T12Z_MSC_RDPS_WindGust-Min_AGL-10m_RLatLon0.09_PT048H.grib2 2026-04-29 14:59 1.0M
20260429T12Z_MSC_RDPS_WindGust_AGL-10m_RLatLon0.09_PT048H.grib2 2026-04-29 14:59 1.0M
20260429T12Z_MSC_RDPS_WindSpeed_AGL-10m_RLatLon0.09_PT048H.grib2 2026-04-29 14:59 842K
20260429T12Z_MSC_RDPS_WindSpeed_AGL-120m_RLatLon0.09_PT048H.grib2 2026-04-29 14:59 543K
20260429T12Z_MSC_RDPS_WindSpeed_AGL-40m_RLatLon0.09_PT048H.grib2 2026-04-29 14:59 543K
20260429T12Z_MSC_RDPS_WindSpeed_AGL-80m_RLatLon0.09_PT048H.grib2 2026-04-29 14:59 543K
20260429T12Z_MSC_RDPS_WindSpeed_IsbL-0001_RLatLon0.09_PT048H.grib2 2026-04-29 14:59 251K
20260429T12Z_MSC_RDPS_WindSpeed_IsbL-0005_RLatLon0.09_PT048H.grib2 2026-04-29 14:59 383K
20260429T12Z_MSC_RDPS_WindSpeed_IsbL-0010_RLatLon0.09_PT048H.grib2 2026-04-29 14:59 399K
20260429T12Z_MSC_RDPS_WindSpeed_IsbL-0020_RLatLon0.09_PT048H.grib2 2026-04-29 14:59 325K
20260429T12Z_MSC_RDPS_WindSpeed_IsbL-0030_RLatLon0.09_PT048H.grib2 2026-04-29 14:59 322K
20260429T12Z_MSC_RDPS_WindSpeed_IsbL-0050_RLatLon0.09_PT048H.grib2 2026-04-29 14:59 352K
20260429T12Z_MSC_RDPS_WindSpeed_IsbL-0100_RLatLon0.09_PT048H.grib2 2026-04-29 14:59 474K
20260429T12Z_MSC_RDPS_WindSpeed_IsbL-0150_RLatLon0.09_PT048H.grib2 2026-04-29 14:59 376K
20260429T12Z_MSC_RDPS_WindSpeed_IsbL-0175_RLatLon0.09_PT048H.grib2 2026-04-29 14:59 423K
20260429T12Z_MSC_RDPS_WindSpeed_IsbL-0200_RLatLon0.09_PT048H.grib2 2026-04-29 14:59 439K
20260429T12Z_MSC_RDPS_WindSpeed_IsbL-0225_RLatLon0.09_PT048H.grib2 2026-04-29 14:59 446K
20260429T12Z_MSC_RDPS_WindSpeed_IsbL-0250_RLatLon0.09_PT048H.grib2 2026-04-29 14:59 448K
20260429T12Z_MSC_RDPS_WindSpeed_IsbL-0275_RLatLon0.09_PT048H.grib2 2026-04-29 14:59 464K
20260429T12Z_MSC_RDPS_WindSpeed_IsbL-0300_RLatLon0.09_PT048H.grib2 2026-04-29 14:59 462K
20260429T12Z_MSC_RDPS_WindSpeed_IsbL-0350_RLatLon0.09_PT048H.grib2 2026-04-29 14:59 471K
20260429T12Z_MSC_RDPS_WindSpeed_IsbL-0400_RLatLon0.09_PT048H.grib2 2026-04-29 14:59 473K
20260429T12Z_MSC_RDPS_WindSpeed_IsbL-0450_RLatLon0.09_PT048H.grib2 2026-04-29 14:59 456K
20260429T12Z_MSC_RDPS_WindSpeed_IsbL-0500_RLatLon0.09_PT048H.grib2 2026-04-29 14:59 457K
20260429T12Z_MSC_RDPS_WindSpeed_IsbL-0550_RLatLon0.09_PT048H.grib2 2026-04-29 14:59 457K
20260429T12Z_MSC_RDPS_WindSpeed_IsbL-0600_RLatLon0.09_PT048H.grib2 2026-04-29 14:59 466K
20260429T12Z_MSC_RDPS_WindSpeed_IsbL-0650_RLatLon0.09_PT048H.grib2 2026-04-29 14:59 606K
20260429T12Z_MSC_RDPS_WindSpeed_IsbL-0700_RLatLon0.09_PT048H.grib2 2026-04-29 14:59 630K
20260429T12Z_MSC_RDPS_WindSpeed_IsbL-0750_RLatLon0.09_PT048H.grib2 2026-04-29 14:59 702K
20260429T12Z_MSC_RDPS_WindSpeed_IsbL-0800_RLatLon0.09_PT048H.grib2 2026-04-29 14:59 748K
20260429T12Z_MSC_RDPS_WindSpeed_IsbL-0850_RLatLon0.09_PT048H.grib2 2026-04-29 14:59 809K
20260429T12Z_MSC_RDPS_WindSpeed_IsbL-0875_RLatLon0.09_PT048H.grib2 2026-04-29 14:59 831K
20260429T12Z_MSC_RDPS_WindSpeed_IsbL-0900_RLatLon0.09_PT048H.grib2 2026-04-29 14:59 848K
20260429T12Z_MSC_RDPS_WindSpeed_IsbL-0925_RLatLon0.09_PT048H.grib2 2026-04-29 14:59 861K
20260429T12Z_MSC_RDPS_WindSpeed_IsbL-0950_RLatLon0.09_PT048H.grib2 2026-04-29 14:59 861K
20260429T12Z_MSC_RDPS_WindSpeed_IsbL-0970_RLatLon0.09_PT048H.grib2 2026-04-29 14:59 862K
20260429T12Z_MSC_RDPS_WindSpeed_IsbL-0985_RLatLon0.09_PT048H.grib2 2026-04-29 14:59 856K
20260429T12Z_MSC_RDPS_WindSpeed_IsbL-1000_RLatLon0.09_PT048H.grib2 2026-04-29 14:59 850K
20260429T12Z_MSC_RDPS_WindSpeed_IsbL-1015_RLatLon0.09_PT048H.grib2 2026-04-29 14:59 841K
20260429T12Z_MSC_RDPS_WindU_AGL-10m_RLatLon0.09_PT048H.grib2 2026-04-29 14:59 432K
20260429T12Z_MSC_RDPS_WindU_AGL-120m_RLatLon0.09_PT048H.grib2 2026-04-29 14:59 539K
20260429T12Z_MSC_RDPS_WindU_AGL-40m_RLatLon0.09_PT048H.grib2 2026-04-29 14:59 540K
20260429T12Z_MSC_RDPS_WindU_AGL-80m_RLatLon0.09_PT048H.grib2 2026-04-29 14:59 539K
20260429T12Z_MSC_RDPS_WindU_IsbL-0001_RLatLon0.09_PT048H.grib2 2026-04-29 14:59 243K
20260429T12Z_MSC_RDPS_WindU_IsbL-0005_RLatLon0.09_PT048H.grib2 2026-04-29 14:59 286K
20260429T12Z_MSC_RDPS_WindU_IsbL-0010_RLatLon0.09_PT048H.grib2 2026-04-29 14:59 300K
20260429T12Z_MSC_RDPS_WindU_IsbL-0020_RLatLon0.09_PT048H.grib2 2026-04-29 14:59 316K
20260429T12Z_MSC_RDPS_WindU_IsbL-0030_RLatLon0.09_PT048H.grib2 2026-04-29 14:59 316K
20260429T12Z_MSC_RDPS_WindU_IsbL-0050_RLatLon0.09_PT048H.grib2 2026-04-29 14:59 345K
20260429T12Z_MSC_RDPS_WindU_IsbL-0100_RLatLon0.09_PT048H.grib2 2026-04-29 14:59 429K
20260429T12Z_MSC_RDPS_WindU_IsbL-0150_RLatLon0.09_PT048H.grib2 2026-04-29 14:59 392K
20260429T12Z_MSC_RDPS_WindU_IsbL-0175_RLatLon0.09_PT048H.grib2 2026-04-29 14:59 414K
20260429T12Z_MSC_RDPS_WindU_IsbL-0200_RLatLon0.09_PT048H.grib2 2026-04-29 14:59 336K
20260429T12Z_MSC_RDPS_WindU_IsbL-0225_RLatLon0.09_PT048H.grib2 2026-04-29 14:59 340K
20260429T12Z_MSC_RDPS_WindU_IsbL-0250_RLatLon0.09_PT048H.grib2 2026-04-29 14:59 340K
20260429T12Z_MSC_RDPS_WindU_IsbL-0275_RLatLon0.09_PT048H.grib2 2026-04-29 14:59 353K
20260429T12Z_MSC_RDPS_WindU_IsbL-0300_RLatLon0.09_PT048H.grib2 2026-04-29 14:59 349K
20260429T12Z_MSC_RDPS_WindU_IsbL-0350_RLatLon0.09_PT048H.grib2 2026-04-29 14:59 357K
20260429T12Z_MSC_RDPS_WindU_IsbL-0400_RLatLon0.09_PT048H.grib2 2026-04-29 14:59 359K
20260429T12Z_MSC_RDPS_WindU_IsbL-0450_RLatLon0.09_PT048H.grib2 2026-04-29 14:59 462K
20260429T12Z_MSC_RDPS_WindU_IsbL-0500_RLatLon0.09_PT048H.grib2 2026-04-29 14:59 463K
20260429T12Z_MSC_RDPS_WindU_IsbL-0550_RLatLon0.09_PT048H.grib2 2026-04-29 14:59 464K
20260429T12Z_MSC_RDPS_WindU_IsbL-0600_RLatLon0.09_PT048H.grib2 2026-04-29 14:59 474K
20260429T12Z_MSC_RDPS_WindU_IsbL-0650_RLatLon0.09_PT048H.grib2 2026-04-29 14:59 477K
20260429T12Z_MSC_RDPS_WindU_IsbL-0700_RLatLon0.09_PT048H.grib2 2026-04-29 14:59 500K
20260429T12Z_MSC_RDPS_WindU_IsbL-0750_RLatLon0.09_PT048H.grib2 2026-04-29 14:59 525K
20260429T12Z_MSC_RDPS_WindU_IsbL-0800_RLatLon0.09_PT048H.grib2 2026-04-29 14:59 565K
20260429T12Z_MSC_RDPS_WindU_IsbL-0850_RLatLon0.09_PT048H.grib2 2026-04-29 14:59 618K
20260429T12Z_MSC_RDPS_WindU_IsbL-0875_RLatLon0.09_PT048H.grib2 2026-04-29 14:59 637K
20260429T12Z_MSC_RDPS_WindU_IsbL-0900_RLatLon0.09_PT048H.grib2 2026-04-29 14:59 650K
20260429T12Z_MSC_RDPS_WindU_IsbL-0925_RLatLon0.09_PT048H.grib2 2026-04-29 14:59 659K
20260429T12Z_MSC_RDPS_WindU_IsbL-0950_RLatLon0.09_PT048H.grib2 2026-04-29 14:59 658K
20260429T12Z_MSC_RDPS_WindU_IsbL-0970_RLatLon0.09_PT048H.grib2 2026-04-29 14:59 656K
20260429T12Z_MSC_RDPS_WindU_IsbL-0985_RLatLon0.09_PT048H.grib2 2026-04-29 14:59 793K
20260429T12Z_MSC_RDPS_WindU_IsbL-1000_RLatLon0.09_PT048H.grib2 2026-04-29 14:59 789K
20260429T12Z_MSC_RDPS_WindU_IsbL-1015_RLatLon0.09_PT048H.grib2 2026-04-29 14:59 782K
20260429T12Z_MSC_RDPS_WindV_AGL-10m_RLatLon0.09_PT048H.grib2 2026-04-29 14:59 431K
20260429T12Z_MSC_RDPS_WindV_AGL-120m_RLatLon0.09_PT048H.grib2 2026-04-29 14:59 536K
20260429T12Z_MSC_RDPS_WindV_AGL-40m_RLatLon0.09_PT048H.grib2 2026-04-29 14:59 537K
20260429T12Z_MSC_RDPS_WindV_AGL-80m_RLatLon0.09_PT048H.grib2 2026-04-29 14:59 536K
20260429T12Z_MSC_RDPS_WindV_IsbL-0001_RLatLon0.09_PT048H.grib2 2026-04-29 14:59 244K
20260429T12Z_MSC_RDPS_WindV_IsbL-0005_RLatLon0.09_PT048H.grib2 2026-04-29 14:59 287K
20260429T12Z_MSC_RDPS_WindV_IsbL-0010_RLatLon0.09_PT048H.grib2 2026-04-29 14:59 302K
20260429T12Z_MSC_RDPS_WindV_IsbL-0020_RLatLon0.09_PT048H.grib2 2026-04-29 14:59 319K
20260429T12Z_MSC_RDPS_WindV_IsbL-0030_RLatLon0.09_PT048H.grib2 2026-04-29 14:59 318K
20260429T12Z_MSC_RDPS_WindV_IsbL-0050_RLatLon0.09_PT048H.grib2 2026-04-29 14:59 344K
20260429T12Z_MSC_RDPS_WindV_IsbL-0100_RLatLon0.09_PT048H.grib2 2026-04-29 14:59 426K
20260429T12Z_MSC_RDPS_WindV_IsbL-0150_RLatLon0.09_PT048H.grib2 2026-04-29 14:59 390K
20260429T12Z_MSC_RDPS_WindV_IsbL-0175_RLatLon0.09_PT048H.grib2 2026-04-29 14:59 414K
20260429T12Z_MSC_RDPS_WindV_IsbL-0200_RLatLon0.09_PT048H.grib2 2026-04-29 14:59 333K
20260429T12Z_MSC_RDPS_WindV_IsbL-0225_RLatLon0.09_PT048H.grib2 2026-04-29 14:59 337K
20260429T12Z_MSC_RDPS_WindV_IsbL-0250_RLatLon0.09_PT048H.grib2 2026-04-29 14:59 337K
20260429T12Z_MSC_RDPS_WindV_IsbL-0275_RLatLon0.09_PT048H.grib2 2026-04-29 14:59 350K
20260429T12Z_MSC_RDPS_WindV_IsbL-0300_RLatLon0.09_PT048H.grib2 2026-04-29 14:59 347K
20260429T12Z_MSC_RDPS_WindV_IsbL-0350_RLatLon0.09_PT048H.grib2 2026-04-29 14:59 457K
20260429T12Z_MSC_RDPS_WindV_IsbL-0400_RLatLon0.09_PT048H.grib2 2026-04-29 14:59 458K
20260429T12Z_MSC_RDPS_WindV_IsbL-0450_RLatLon0.09_PT048H.grib2 2026-04-29 14:59 458K
20260429T12Z_MSC_RDPS_WindV_IsbL-0500_RLatLon0.09_PT048H.grib2 2026-04-29 14:59 460K
20260429T12Z_MSC_RDPS_WindV_IsbL-0550_RLatLon0.09_PT048H.grib2 2026-04-29 14:59 462K
20260429T12Z_MSC_RDPS_WindV_IsbL-0600_RLatLon0.09_PT048H.grib2 2026-04-29 14:59 452K
20260429T12Z_MSC_RDPS_WindV_IsbL-0650_RLatLon0.09_PT048H.grib2 2026-04-29 14:59 473K
20260429T12Z_MSC_RDPS_WindV_IsbL-0700_RLatLon0.09_PT048H.grib2 2026-04-29 14:59 494K
20260429T12Z_MSC_RDPS_WindV_IsbL-0750_RLatLon0.09_PT048H.grib2 2026-04-29 14:59 518K
20260429T12Z_MSC_RDPS_WindV_IsbL-0800_RLatLon0.09_PT048H.grib2 2026-04-29 14:59 560K
20260429T12Z_MSC_RDPS_WindV_IsbL-0850_RLatLon0.09_PT048H.grib2 2026-04-29 14:59 614K
20260429T12Z_MSC_RDPS_WindV_IsbL-0875_RLatLon0.09_PT048H.grib2 2026-04-29 14:59 635K
20260429T12Z_MSC_RDPS_WindV_IsbL-0900_RLatLon0.09_PT048H.grib2 2026-04-29 14:59 788K
20260429T12Z_MSC_RDPS_WindV_IsbL-0925_RLatLon0.09_PT048H.grib2 2026-04-29 14:59 796K
20260429T12Z_MSC_RDPS_WindV_IsbL-0950_RLatLon0.09_PT048H.grib2 2026-04-29 14:59 797K
20260429T12Z_MSC_RDPS_WindV_IsbL-0970_RLatLon0.09_PT048H.grib2 2026-04-29 14:59 795K
20260429T12Z_MSC_RDPS_WindV_IsbL-0985_RLatLon0.09_PT048H.grib2 2026-04-29 14:59 790K
20260429T12Z_MSC_RDPS_WindV_IsbL-1000_RLatLon0.09_PT048H.grib2 2026-04-29 14:59 830K
20260429T12Z_MSC_RDPS_WindV_IsbL-1015_RLatLon0.09_PT048H.grib2 2026-04-29 14:59 823K